Time,TemperatureF,DewpointF,PressureIn,WindDirection,WindDirectionDegrees,WindSpeedMPH,WindSpeedGustMPH,Humidity,HourlyPrecipIn,Conditions,Clouds,dailyrainin,SolarRadiationWatts/m^2,SoftwareType,DateUTC
2013-12-02 00:21:00,26.0,24.0,-100.00,West,262,0.0,2.0,92,0.00,,,0.00,0.000000,,2013-12-02 07:21:00,
2013-12-02 00:31:00,26.0,24.0,-100.00,West,262,0.0,2.0,92,0.00,,,0.00,0.000000,,2013-12-02 07:31:00,
2013-12-02 00:42:00,26.0,24.0,-100.00,West,262,0.0,2.0,92,0.00,,,0.00,0.000000,,2013-12-02 07:42:00,
2013-12-02 00:52:00,26.0,24.0,-100.00,West,262,0.0,2.0,92,0.00,,,0.00,0.000000,,2013-12-02 07:52:00,
2013-12-02 01:22:00,26.0,24.0,-100.00,WSW,246,0.0,2.0,92,0.00,,,0.00,0.000000,,2013-12-02 08:22:00,
2013-12-02 01:32:00,26.0,24.0,-100.00,WSW,246,0.0,2.0,92,0.00,,,0.00,0.000000,,2013-12-02 08:32:00,
2013-12-02 01:42:00,26.0,24.0,-100.00,WSW,246,0.0,2.0,92,0.00,,,0.00,0.000000,,2013-12-02 08:42:00,
2013-12-02 01:52:00,26.0,24.0,-100.00,WSW,246,0.0,2.0,92,0.00,,,0.00,0.000000,,2013-12-02 08:52:00,
2013-12-02 02:22:00,26.0,24.0,-100.00,WSW,242,0.0,2.0,93,0.00,,,0.00,0.000000,,2013-12-02 09:22:00,
2013-12-02 02:32:00,26.0,24.0,-100.00,WSW,242,0.0,2.0,93,0.00,,,0.00,0.000000,,2013-12-02 09:32:00,
2013-12-02 02:43:00,26.0,24.0,-100.00,WSW,242,0.0,2.0,93,0.00,,,0.00,0.000000,,2013-12-02 09:43:00,
2013-12-02 02:53:00,26.0,24.0,-100.00,WSW,242,0.0,2.0,93,0.00,,,0.00,0.000000,,2013-12-02 09:53:00,
2013-12-02 03:23:00,26.0,24.0,-100.00,SSE,152,2.0,4.0,93,0.00,,,0.00,0.000000,,2013-12-02 10:23:00,
2013-12-02 03:33:00,26.0,24.0,-100.00,SSE,152,2.0,4.0,93,0.00,,,0.00,0.000000,,2013-12-02 10:33:00,
2013-12-02 03:42:00,26.0,24.0,-100.00,SSE,152,2.0,4.0,93,0.00,,,0.00,0.000000,,2013-12-02 10:42:00,
2013-12-02 03:52:00,26.0,24.0,-100.00,SSE,152,2.0,4.0,93,0.00,,,0.00,0.000000,,2013-12-02 10:52:00,
2013-12-02 04:22:00,26.0,24.0,-100.00,South,172,2.0,3.0,93,0.00,,,0.00,0.000000,,2013-12-02 11:22:00,
2013-12-02 04:32:00,26.0,24.0,-100.00,South,172,2.0,3.0,93,0.00,,,0.00,0.000000,,2013-12-02 11:32:00,
2013-12-02 04:42:00,26.0,24.0,-100.00,South,172,2.0,3.0,93,0.00,,,0.00,0.000000,,2013-12-02 11:42:00,
2013-12-02 04:52:00,26.0,24.0,-100.00,South,172,2.0,3.0,93,0.00,,,0.00,0.000000,,2013-12-02 11:52:00,
2013-12-02 05:21:00,26.0,24.0,-100.00,South,183,1.0,3.0,93,0.00,,,-99.99,0.000000,,2013-12-02 12:21:00,
2013-12-02 05:32:00,26.0,24.0,-100.00,South,183,1.0,3.0,93,0.00,,,-99.99,0.000000,,2013-12-02 12:32:00,
2013-12-02 05:42:00,26.0,24.0,-100.00,South,183,1.0,3.0,93,0.00,,,-99.99,0.000000,,2013-12-02 12:42:00,
2013-12-02 05:52:00,26.0,24.0,-100.00,South,183,1.0,3.0,93,0.00,,,-99.99,0.000000,,2013-12-02 12:52:00,
2013-12-02 06:21:00,26.0,25.0,-100.00,SSW,200,2.0,3.0,94,0.00,,,0.00,0.000000,,2013-12-02 13:21:00,
2013-12-02 06:32:00,26.0,25.0,-100.00,SSW,200,2.0,3.0,94,0.00,,,0.00,0.000000,,2013-12-02 13:32:00,
2013-12-02 06:42:00,26.0,25.0,-100.00,SSW,200,2.0,3.0,94,0.00,,,0.00,0.000000,,2013-12-02 13:42:00,
2013-12-02 06:52:00,26.0,25.0,-100.00,SSW,200,2.0,3.0,94,0.00,,,0.00,0.000000,,2013-12-02 13:52:00,
2013-12-02 07:22:00,26.0,24.0,-100.00,South,184,0.0,3.0,93,0.00,,,0.00,0.000000,,2013-12-02 14:22:00,
2013-12-02 07:32:00,26.0,24.0,-100.00,South,184,0.0,3.0,93,0.00,,,0.00,0.000000,,2013-12-02 14:32:00,
2013-12-02 07:42:00,26.0,24.0,-100.00,South,184,0.0,3.0,93,0.00,,,0.00,0.000000,,2013-12-02 14:42:00,
2013-12-02 07:52:00,26.0,24.0,-100.00,South,184,0.0,3.0,93,0.00,,,0.00,0.000000,,2013-12-02 14:52:00,
2013-12-02 08:21:00,26.0,25.0,-100.00,SSW,195,1.0,3.0,94,0.00,,,0.00,12.000000,,2013-12-02 15:21:00,
2013-12-02 08:34:00,26.0,25.0,-100.00,SSW,195,1.0,3.0,94,0.00,,,0.00,12.000000,,2013-12-02 15:34:00,
2013-12-02 08:43:00,26.0,25.0,-100.00,SSW,195,1.0,3.0,94,0.00,,,0.00,12.000000,,2013-12-02 15:43:00,
2013-12-02 08:53:00,26.0,25.0,-100.00,SSW,195,1.0,3.0,94,0.00,,,0.00,12.000000,,2013-12-02 15:53:00,
2013-12-02 09:23:00,26.0,24.0,-100.00,WSW,244,2.0,5.0,91,0.00,,,0.00,69.000000,,2013-12-02 16:23:00,
2013-12-02 09:33:00,26.0,24.0,-100.00,WSW,244,2.0,5.0,91,0.00,,,0.00,69.000000,,2013-12-02 16:33:00,
2013-12-02 09:42:00,26.0,24.0,-100.00,WSW,244,2.0,5.0,91,0.00,,,0.00,69.000000,,2013-12-02 16:42:00,
2013-12-02 09:53:00,26.0,24.0,-100.00,WSW,244,2.0,5.0,91,0.00,,,0.00,69.000000,,2013-12-02 16:53:00,
2013-12-02 10:22:00,28.0,25.0,-100.00,SSE,167,3.0,5.0,89,0.00,,,0.00,107.000000,,2013-12-02 17:22:00,
2013-12-02 10:33:00,28.0,25.0,-100.00,SSE,167,3.0,5.0,89,0.00,,,0.00,107.000000,,2013-12-02 17:33:00,
2013-12-02 10:42:00,28.0,25.0,-100.00,SSE,167,3.0,5.0,89,0.00,,,0.00,107.000000,,2013-12-02 17:42:00,
2013-12-02 10:52:00,28.0,25.0,-100.00,SSE,167,3.0,5.0,89,0.00,,,0.00,107.000000,,2013-12-02 17:52:00,
2013-12-02 11:21:00,28.0,25.0,-100.00,SSW,201,4.0,7.0,87,0.00,,,0.00,147.000000,,2013-12-02 18:21:00,
2013-12-02 11:32:00,28.0,25.0,-100.00,SSW,201,4.0,7.0,87,0.00,,,0.00,147.000000,,2013-12-02 18:32:00,
2013-12-02 11:42:00,28.0,25.0,-100.00,SSW,201,4.0,7.0,87,0.00,,,0.00,147.000000,,2013-12-02 18:42:00,
2013-12-02 11:52:00,28.0,25.0,-100.00,SSW,201,4.0,7.0,87,0.00,,,0.00,147.000000,,2013-12-02 18:52:00,
2013-12-02 12:22:00,27.0,24.0,-100.00,SSW,200,5.0,8.0,89,0.00,,,0.00,123.000000,,2013-12-02 19:22:00,
2013-12-02 12:32:00,27.0,24.0,-100.00,SSW,200,5.0,8.0,89,0.00,,,0.00,123.000000,,2013-12-02 19:32:00,
2013-12-02 12:42:00,27.0,24.0,-100.00,SSW,200,5.0,8.0,89,0.00,,,0.00,123.000000,,2013-12-02 19:42:00,
2013-12-02 12:52:00,27.0,24.0,-100.00,SSW,200,5.0,8.0,89,0.00,,,0.00,123.000000,,2013-12-02 19:52:00,
2013-12-02 13:21:00,27.0,24.0,-100.00,SSW,204,5.0,9.0,90,0.00,,,0.00,93.000000,,2013-12-02 20:21:00,
2013-12-02 13:31:00,27.0,24.0,-100.00,SSW,204,5.0,9.0,90,0.00,,,0.00,93.000000,,2013-12-02 20:31:00,
2013-12-02 13:42:00,27.0,24.0,-100.00,SSW,204,5.0,9.0,90,0.00,,,0.00,93.000000,,2013-12-02 20:42:00,
2013-12-02 13:52:00,27.0,24.0,-100.00,SSW,204,5.0,9.0,90,0.00,,,0.00,93.000000,,2013-12-02 20:52:00,
2013-12-02 14:21:00,28.0,25.0,-100.00,SSW,206,3.0,7.0,88,0.00,,,0.00,90.000000,,2013-12-02 21:21:00,
2013-12-02 14:34:00,28.0,25.0,-100.00,SSW,206,3.0,7.0,88,0.00,,,0.00,90.000000,,2013-12-02 21:34:00,
2013-12-02 14:43:00,28.0,25.0,-100.00,SSW,206,3.0,7.0,88,0.00,,,0.00,90.000000,,2013-12-02 21:43:00,
2013-12-02 14:53:00,28.0,25.0,-100.00,SSW,206,3.0,7.0,88,0.00,,,0.00,90.000000,,2013-12-02 21:53:00,
2013-12-02 15:23:00,29.0,25.0,-100.00,SE,145,2.0,6.0,85,0.00,,,0.00,128.000000,,2013-12-02 22:23:00,
2013-12-02 15:33:00,29.0,25.0,-100.00,SE,145,2.0,6.0,85,0.00,,,0.00,128.000000,,2013-12-02 22:33:00,
2013-12-02 15:42:00,29.0,25.0,-100.00,SE,145,2.0,6.0,85,0.00,,,0.00,128.000000,,2013-12-02 22:42:00,
2013-12-02 15:53:00,29.0,25.0,-100.00,SE,145,2.0,6.0,85,0.00,,,0.00,128.000000,,2013-12-02 22:53:00,
2013-12-02 16:22:00,29.0,25.0,-100.00,SSE,167,2.0,5.0,84,0.00,,,0.00,47.000000,,2013-12-02 23:22:00,
2013-12-02 16:33:00,29.0,25.0,-100.00,SSE,167,2.0,5.0,84,0.00,,,0.00,47.000000,,2013-12-02 23:33:00,
2013-12-02 16:42:00,29.0,25.0,-100.00,SSE,167,2.0,5.0,84,0.00,,,0.00,47.000000,,2013-12-02 23:42:00,
2013-12-02 16:53:00,29.0,25.0,-100.00,SSE,167,2.0,5.0,84,0.00,,,0.00,47.000000,,2013-12-02 23:53:00,
2013-12-02 17:21:00,28.0,24.0,-100.00,ESE,118,0.0,4.0,86,0.00,,,0.00,17.000000,,2013-12-03 00:21:00,
2013-12-02 17:32:00,28.0,24.0,-100.00,ESE,118,0.0,4.0,86,0.00,,,0.00,17.000000,,2013-12-03 00:32:00,
2013-12-02 17:42:00,28.0,24.0,-100.00,ESE,118,0.0,4.0,86,0.00,,,0.00,17.000000,,2013-12-03 00:42:00,
2013-12-02 17:52:00,28.0,24.0,-100.00,ESE,118,0.0,4.0,86,0.00,,,0.00,17.000000,,2013-12-03 00:52:00,
2013-12-02 18:21:00,27.0,24.0,-100.00,ESE,108,2.0,6.0,87,0.00,,,0.00,0.000000,,2013-12-03 01:21:00,
2013-12-02 18:32:00,27.0,24.0,-100.00,ESE,108,2.0,6.0,87,0.00,,,0.00,0.000000,,2013-12-03 01:32:00,
2013-12-02 18:42:00,27.0,24.0,-100.00,ESE,108,2.0,6.0,87,0.00,,,0.00,0.000000,,2013-12-03 01:42:00,
2013-12-02 18:52:00,27.0,24.0,-100.00,ESE,108,2.0,6.0,87,0.00,,,0.00,0.000000,,2013-12-03 01:52:00,
2013-12-02 19:21:00,27.0,24.0,-100.00,South,171,3.0,6.0,89,0.00,,,0.00,0.000000,,2013-12-03 02:21:00,
2013-12-02 19:32:00,27.0,24.0,-100.00,South,171,3.0,6.0,89,0.00,,,0.00,0.000000,,2013-12-03 02:32:00,
2013-12-02 19:42:00,27.0,24.0,-100.00,South,171,3.0,6.0,89,0.00,,,0.00,0.000000,,2013-12-03 02:42:00,
2013-12-02 19:52:00,27.0,24.0,-100.00,South,171,3.0,6.0,89,0.00,,,0.00,0.000000,,2013-12-03 02:52:00,
2013-12-02 20:21:00,27.0,24.0,-100.00,SE,140,3.0,5.0,89,0.00,,,0.00,0.000000,,2013-12-03 03:21:00,
2013-12-02 20:33:00,27.0,24.0,-100.00,SE,140,3.0,5.0,89,0.00,,,0.00,0.000000,,2013-12-03 03:33:00,
2013-12-02 20:43:00,27.0,24.0,-100.00,SE,140,3.0,5.0,89,0.00,,,0.00,0.000000,,2013-12-03 03:43:00,
2013-12-02 20:53:00,27.0,24.0,-100.00,SE,140,3.0,5.0,89,0.00,,,0.00,0.000000,,2013-12-03 03:53:00,
2013-12-02 21:23:00,27.0,24.0,-100.00,SE,127,5.0,9.0,87,0.00,,,0.00,0.000000,,2013-12-03 04:23:00,
2013-12-02 21:33:00,27.0,24.0,-100.00,SE,127,5.0,9.0,87,0.00,,,0.00,0.000000,,2013-12-03 04:33:00,
2013-12-02 21:42:00,27.0,24.0,-100.00,SE,127,5.0,9.0,87,0.00,,,0.00,0.000000,,2013-12-03 04:42:00,
2013-12-02 21:52:00,27.0,24.0,-100.00,SE,127,5.0,9.0,87,0.00,,,0.00,0.000000,,2013-12-03 04:52:00,
2013-12-02 22:22:00,27.0,23.0,-100.00,NE,54,2.0,6.0,86,0.00,,,-99.99,0.000000,,2013-12-03 05:22:00,
2013-12-02 22:33:00,27.0,23.0,-100.00,NE,54,2.0,6.0,86,0.00,,,-99.99,0.000000,,2013-12-03 05:33:00,
2013-12-02 22:42:00,27.0,23.0,-100.00,NE,54,2.0,6.0,86,0.00,,,-99.99,0.000000,,2013-12-03 05:42:00,
2013-12-02 22:53:00,27.0,23.0,-100.00,NE,54,2.0,6.0,86,0.00,,,-99.99,0.000000,,2013-12-03 05:53:00,
2013-12-02 23:22:00,26.0,23.0,-100.00,NNE,33,2.0,5.0,87,0.00,,,0.00,0.000000,,2013-12-03 06:22:00,
2013-12-02 23:32:00,26.0,23.0,-100.00,NNE,33,2.0,5.0,87,0.00,,,0.00,0.000000,,2013-12-03 06:32:00,
2013-12-02 23:42:00,26.0,23.0,-100.00,NNE,33,2.0,5.0,87,0.00,,,0.00,0.000000,,2013-12-03 06:42:00,
2013-12-02 23:52:00,26.0,23.0,-100.00,NNE,33,2.0,5.0,87,0.00,,,0.00,0.000000,,2013-12-03 06:52:00,